Location: Cartignies
(50.0929°N, 3.8447°E)
Time: 14:08:50
(UTC+00:00)

IGS 5A - Pass Details

Date: 12 January 2026
Orbit: 551 x 554 km, 97.4° (Epoch: 8 January)

Event Time Altitude Azimuth Distance (km) Brightness Sun altitude
Rises 16:56:52 0° 178° (S) 2,719 7.2 -7.9°
Reaches altitude 10° 16:59:01 10° 184° (S) 1,829 6.4 -8.2°
Maximum altitude 17:02:53 51° 261° (W) 703 4.4 -8.8°
Drops below altitude 10° 17:06:47 10° 338° (NNW) 1,843 6.0 -9.3°
Sets 17:08:58 0° 343° (NNW) 2,743 6.8 -9.7°
